CW3306 Weather Reports


time (UTC)temp
C
wind
direction
speed
KPH
gust
KPH
rain 1hr
cm
rain 24hr
cm
rain mn
cm
humidity
%
barometer
mb
20260906231847 26 331 0.0 1.6 0.00 0.05 0.05 81 1013.6
20260906231321 26 206 0.0 1.6 0.00 0.05 0.05 80 1013.7
20260906230816 27 206 0.0 1.6 0.00 0.05 0.05 81 1013.7
20260906230332 27 234 0.0 1.6 0.00 0.05 0.05 79 1013.7
20260906225827 27 234 0.0 3.2 0.00 0.05 0.05 80 1013.8
20260906225324 27 163 0.0 3.2 0.00 0.05 0.05 80 1013.8
20260906224845 27 5 1.6 3.2 0.00 0.05 0.05 78 1013.7
20260906224319 27 105 1.6 3.2 0.00 0.05 0.05 76 1013.7
20260906223815 27 162 0.0 4.8 0.00 0.05 0.05 77 1013.6
20260906223331 27 162 0.0 4.8 0.00 0.05 0.05 76 1013.5
20260906222827 27 288 0.0 3.2 0.00 0.05 0.05 75 1013.5
20260906222343 27 310 0.0 1.6 0.00 0.05 0.05 74 1013.3
20260906221818 27 87 0.0 4.8 0.00 0.05 0.05 75 1013.3
20260906221313 27 346 1.6 4.8 0.00 0.05 0.05 75 1013.2
20260906220813 28 204 1.6 4.8 0.00 0.05 0.05 75 1013.2
20260906220329 28 211 1.6 3.2 0.00 0.05 0.05 78 1013.2
20260906215825 28 360 1.6 3.2 0.00 0.05 0.05 76 1013.1
20260906215321 28 214 0.0 4.8 0.00 0.05 0.05 72 1013.2
20260906214816 28 266 1.6 4.8 0.00 0.05 0.05 75 1013.2
20260906214312 29 127 1.6 3.2 0.00 0.05 0.05 74 1013.2
20260906213829 29 248 0.0 8.0 0.00 0.05 0.05 73 1013.3
20260906213325 29 255 3.2 8.0 0.00 0.05 0.05 67 1013.3
20260906212825 29 315 0.0 4.8 0.00 0.05 0.05 71 1013.3
20260906212343 30 236 1.6 3.2 0.00 0.05 0.05 69 1013.3
20260906211818 30 154 0.0 6.4 0.00 0.05 0.05 69 1013.2
20260906211314 30 319 1.6 6.4 0.00 0.05 0.05 69 1013.2
20260906210830 30 340 1.6 4.8 0.00 0.05 0.05 68 1013.2
20260906210347 30 300 1.6 4.8 0.00 0.05 0.05 68 1013.1
20260906205822 30 292 1.6 4.8 0.00 0.05 0.05 71 1013.1
20260906205318 30 175 1.6 4.8 0.00 0.05 0.05 68 1013.1
20260906204839 30 160 1.6 4.8 0.00 0.05 0.05 67 1013.1
20260906204313 30 247 1.6 4.8 0.00 0.05 0.05 66 1013.2
20260906203829 30 329 1.6 4.8 0.00 0.05 0.05 69 1013.2
20260906203326 30 261 1.6 4.8 0.00 0.05 0.05 72 1013.2
20260906202822 30 224 1.6 3.2 0.00 0.05 0.05 66 1013.2
20260906202338 30 81 1.6 4.8 0.00 0.05 0.05 69 1013.2
20260906201813 30 273 1.6 3.2 0.00 0.05 0.05 68 1013.3
20260906201331 31 248 1.6 6.4 0.00 0.05 0.05 65 1013.3
20260906200831 31 355 3.2 6.4 0.00 0.05 0.05 66 1013.4
20260906200326 31 186 1.6 4.8 0.00 0.05 0.05 62 1013.5
20260906195822 31 65 1.6 3.2 0.00 0.05 0.05 63 1013.5
20260906195339 31 236 1.6 3.2 0.00 0.05 0.05 68 1013.5
20260906194834 31 5 1.6 6.4 0.00 0.05 0.05 67 1013.6
20260906194329 31 274 1.6 6.4 0.00 0.05 0.05 66 1013.6
20260906193825 31 33 3.2 6.4 0.00 0.05 0.05 68 1013.6
20260906193322 30 188 0.0 4.8 0.00 0.05 0.05 69 1013.6
20260906192817 30 348 1.6 4.8 0.00 0.05 0.05 69 1013.6
20260906192338 30 126 0.0 3.2 0.00 0.05 0.05 69 1013.6
20260906191853 30 65 1.6 3.2 0.00 0.05 0.05 71 1013.7
20260906191329 30 34 1.6 3.2 0.00 0.05 0.05 73 1013.7
20260906190825 30 76 1.6 4.8 0.00 0.05 0.05 72 1013.9
20260906190321 30 304 1.6 4.8 0.00 0.05 0.05 73 1014.0
20260906185817 30 206 1.6 6.4 0.00 0.05 0.05 75 1014.1
20260906185314 29 16 1.6 6.4 0.00 0.05 0.05 76 1014.3
20260906184830 29 209 1.6 6.4 0.00 0.05 0.05 76 1014.3
20260906184330 28 14 0.0 6.4 0.00 0.05 0.05 76 1014.4
20260906183846 29 232 0.0 3.2 0.00 0.05 0.05 77 1014.4
20260906183341 29 301 0.0 1.6 0.00 0.05 0.05 76 1014.4
20260906182816 28 225 0.0 0.0 0.00 0.05 0.05 77 1014.4
20260906182312 29 325 0.0 3.2 0.00 0.05 0.05 75 1014.6
20260906181827 29 325 0.0 4.8 0.00 0.05 0.05 74 1014.7
20260906181323 30 261 1.6 4.8 0.00 0.05 0.05 71 1014.7
20260906180818 30 288 1.6 4.8 0.00 0.05 0.05 71 1014.7
20260906180314 30 336 1.6 11.3 0.00 0.05 0.05 70 1014.7
20260906175850 30 121 0.0 3.2 0.00 0.05 0.05 73 1014.7
20260906175329 30 9 0.0 3.2 0.00 0.05 0.05 70 1014.8
20260906174826 30 73 0.0 6.4 0.00 0.05 0.05 73 1014.8
20260906174323 31 338 1.6 6.4 0.00 0.05 0.05 71 1014.9
20260906173818 31 111 1.6 4.8 0.00 0.05 0.05 66 1015.0
20260906173315 30 355 1.6 6.4 0.00 0.05 0.05 70 1015.0
20260906172831 30 85 1.6 6.4 0.00 0.05 0.05 71 1015.1
20260906172327 30 305 1.6 8.0 0.00 0.05 0.05 69 1015.1
20260906171827 30 319 1.6 8.0 0.00 0.05 0.05 67 1015.2
20260906171324 30 177 3.2 8.0 0.00 0.05 0.05 71 1015.2
20260906170819 30 283 3.2 6.4 0.00 0.05 0.05 72 1015.3
20260906170315 30 320 3.2 4.8 0.00 0.05 0.05 68 1015.4
20260906165832 30 99 1.6 4.8 0.00 0.05 0.05 68 1015.3
20260906165326 30 229 1.6 4.8 0.00 0.05 0.05 73 1015.3
20260906164822 30 189 1.6 6.4 0.00 0.05 0.05 73 1015.3
20260906164339 29 192 3.2 8.0 0.00 0.05 0.05 73 1015.3
20260906163818 29 190 1.6 8.0 0.00 0.05 0.05 75 1015.4
20260906163314 29 148 1.6 3.2 0.00 0.05 0.05 77 1015.4
20260906162829 29 107 0.0 4.8 0.00 0.05 0.05 72 1015.4
20260906162325 29 184 1.6 4.8 0.00 0.05 0.05 77 1015.5
20260906161821 29 337 0.0 4.8 0.00 0.05 0.05 73 1015.5
20260906161317 28 182 1.6 6.4 0.00 0.05 0.05 73 1015.6
20260906160834 28 34 0.0 4.8 0.00 0.05 0.05 78 1015.5
20260906160330 28 88 1.6 4.8 0.00 0.05 0.05 74 1015.6
20260906155825 28 182 0.0 3.2 0.00 0.05 0.05 78 1015.6
20260906155326 27 298 1.6 3.2 0.00 0.05 0.05 80 1015.6
20260906154822 27 167 0.0 4.8 0.00 0.05 0.05 82 1015.5
20260906154318 27 309 1.6 4.8 0.00 0.05 0.05 80 1015.6
20260906153814 27 240 1.6 6.4 0.00 0.05 0.05 82 1015.6
20260906153331 27 360 1.6 6.4 0.00 0.05 0.05 80 1015.8
20260906152826 27 241 1.6 4.8 0.00 0.05 0.05 83 1015.8
20260906152342 27 257 3.2 4.8 0.00 0.05 0.05 82 1015.6
20260906151816 27 321 0.0 4.8 0.00 0.05 0.05 86 1015.8
20260906151316 27 169 1.6 8.0 0.00 0.05 0.05 87 1015.8
20260906150813 26 5 1.6 8.0 0.00 0.05 0.05 82 1015.8
20260906150327 26 186 1.6 4.8 0.00 0.05 0.05 86 1015.8
20260906145823 26 279 1.6 3.2 0.00 0.05 0.05 87 1015.8
20260906145319 26 28 0.0 3.2 0.00 0.05 0.05 85 1015.8
20260906144815 26 340 1.6 3.2 0.00 0.05 0.05 89 1015.8
20260906144312 25 15 0.0 3.2 0.00 0.05 0.05 88 1015.8
20260906143812 25 127 0.0 3.2 0.00 0.05 0.05 88 1015.9
20260906143328 25 51 0.0 0.0 0.00 0.05 0.05 88 1015.8
20260906142824 25 78 0.0 0.0 0.00 0.05 0.05 88 1015.9
20260906142320 25 78 0.0 0.0 0.00 0.05 0.05 91 1016.0
20260906141836 24 344 0.0 0.0 0.00 0.05 0.05 92 1016.0
20260906141331 24 191 0.0 0.0 0.00 0.05 0.05 92 1015.9
20260906140827 23 191 0.0 0.0 0.00 0.05 0.05 92 1015.8
20260906140324 23 217 0.0 0.0 0.00 0.05 0.05 93 1015.9
20260906135825 23 360 0.0 0.0 0.00 0.05 0.05 94 1015.9
20260906135320 23 355 0.0 0.0 0.00 0.05 0.05 96 1015.9
20260906134816 23 344 0.0 0.0 0.00 0.05 0.05 96 1015.8
20260906134311 22 322 0.0 0.0 0.00 0.05 0.05 97 1015.9
20260906133848 22 322 0.0 0.0 0.00 0.05 0.05 98 1015.8
20260906133323 22 322 0.0 0.0 0.00 0.05 0.05 98 1015.8
20260906132839 22 322 0.0 0.0 0.00 0.05 0.05 98 1015.8
20260906132314 22 322 0.0 0.0 0.00 0.05 0.05 98 1015.8
20260906131830 21 326 0.0 0.0 0.00 0.05 0.05 98 1015.8
20260906131331 21 326 0.0 0.0 0.00 0.05 0.05 98 1015.8
20260906130827 21 326 0.0 0.0 0.00 0.05 0.05 98 1015.8
20260906130323 21 326 0.0 0.0 0.00 0.05 0.05 98 1015.9
20260906125819 21 326 0.0 0.0 0.00 0.05 0.05 98 1015.8
20260906125316 21 326 0.0 0.0 0.00 0.05 0.05 98 1015.9
20260906124811 20 326 0.0 0.0 0.00 0.05 0.05 98 1015.8
20260906124328 20 326 0.0 0.0 0.00 0.05 0.05 98 1015.8
20260906123828 20 326 0.0 0.0 0.00 0.05 0.05 98 1015.8
20260906123325 20 326 0.0 0.0 0.00 0.05 0.05 98 1015.8
20260906122820 20 326 0.0 0.0 0.00 0.05 0.05 98 1015.7
20260906122317 20 326 0.0 0.0 0.00 0.05 0.05 97 1015.7
20260906121813 20 326 0.0 0.0 0.00 0.05 0.05 97 1015.5
20260906121328 20 326 0.0 0.0 0.00 0.05 0.05 97 1015.5
20260906120824 20 326 0.0 0.0 0.00 0.05 0.05 97 1015.5
20260906120325 20 326 0.0 0.0 0.00 0.05 0.05 97 1015.4
20260906115820 20 326 0.0 0.0 0.00 0.05 0.05 97 1015.3
20260906115337 20 326 0.0 0.0 0.00 0.05 0.05 97 1015.2
20260906114812 20 326 0.0 0.0 0.00 0.05 0.05 97 1015.2
20260906114348 20 326 0.0 0.0 0.00 0.05 0.05 97 1015.3
20260906113844 20 326 0.0 0.0 0.00 0.05 0.05 97 1015.2
20260906113317 20 326 0.0 0.0 0.00 0.05 0.05 97 1015.1
20260906112813 20 326 0.0 0.0 0.00 0.05 0.05 97 1014.9
20260906112331 20 326 0.0 0.0 0.00 0.05 0.05 97 1015.0
20260906111831 20 326 0.0 0.0 0.00 0.05 0.05 97 1014.9
20260906111327 20 326 0.0 0.0 0.00 0.05 0.05 97 1014.8
20260906110823 20 326 0.0 0.0 0.00 0.05 0.05 97 1014.8
20260906110320 20 326 0.0 0.0 0.00 0.05 0.05 97 1014.7
20260906105816 20 326 0.0 0.0 0.00 0.05 0.05 97 1014.8
20260906105333 20 326 0.0 0.0 0.00 0.05 0.05 97 1014.8
20260906104828 20 326 0.0 0.0 0.00 0.05 0.05 97 1014.6
20260906104344 20 326 0.0 0.0 0.00 0.05 0.05 97 1014.7
20260906103839 20 326 0.0 0.0 0.00 0.05 0.05 97 1014.5
20260906103319 20 326 0.0 0.0 0.00 0.05 0.05 97 1014.5
20260906102814 20 326 0.0 0.0 0.00 0.05 0.05 97 1014.4
20260906102331 20 326 0.0 0.0 0.00 0.05 0.05 97 1014.5
20260906101827 21 326 0.0 0.0 0.00 0.05 0.05 97 1014.4
20260906101324 20 326 0.0 0.0 0.00 0.05 0.05 97 1014.4
20260906100819 21 326 0.0 0.0 0.00 0.05 0.05 97 1014.4
20260906100337 21 326 0.0 0.0 0.00 0.05 0.05 97 1014.5
20260906095816 21 326 0.0 0.0 0.00 0.05 0.05 97 1014.4
20260906095312 21 326 0.0 0.0 0.00 0.05 0.05 97 1014.4
20260906094828 21 326 0.0 0.0 0.00 0.05 0.05 97 1014.4
20260906094325 21 326 0.0 0.0 0.00 0.05 0.05 97 1014.4
20260906093841 21 326 0.0 0.0 0.00 0.05 0.05 97 1014.4
20260906093316 21 326 0.0 0.0 0.00 0.05 0.05 97 1014.5
20260906092812 21 326 0.0 0.0 0.00 0.05 0.05 97 1014.4
20260906092347 21 326 0.0 0.0 0.00 0.05 0.05 97 1014.4
20260906091822 21 326 0.0 0.0 0.00 0.05 0.05 97 1014.5
20260906091343 21 326 0.0 0.0 0.00 0.05 0.05 97 1014.5
20260906090818 21 326 0.0 0.0 0.00 0.05 0.05 97 1014.4
20260906090315 21 326 0.0 0.0 0.00 0.05 0.05 97 1014.4
20260906085831 21 326 0.0 0.0 0.00 0.05 0.05 97 1014.4
20260906085328 21 326 0.0 0.0 0.00 0.05 0.05 97 1014.4
20260906084824 21 326 0.0 0.0 0.00 0.05 0.05 97 1014.5
20260906084319 21 326 0.0 0.0 0.00 0.05 0.05 97 1014.3
20260906083814 21 326 0.0 0.0 0.00 0.05 0.05 97 1014.3
20260906083329 21 326 0.0 0.0 0.00 0.05 0.05 97 1014.3
20260906082827 21 326 0.0 0.0 0.00 0.05 0.05 97 1014.4
20260906082323 21 326 0.0 0.0 0.00 0.05 0.05 97 1014.4
20260906081839 21 326 0.0 0.0 0.00 0.05 0.05 97 1014.4
20260906081314 22 326 0.0 0.0 0.00 0.05 0.05 97 1014.3
20260906080850 22 326 0.0 0.0 0.00 0.05 0.05 97 1014.2
20260906080325 22 326 0.0 0.0 0.00 0.05 0.05 97 1014.4
20260906075821 22 326 0.0 0.0 0.00 0.05 0.05 97 1014.5
20260906075318 22 326 0.0 0.0 0.00 0.05 0.05 97 1014.6
20260906074837 22 288 0.0 1.6 0.00 0.05 0.05 97 1014.8
20260906074312 22 40 0.0 1.6 0.00 0.05 0.05 97 1014.9
20260906073828 22 138 0.0 0.0 0.00 0.05 0.05 97 1014.8
20260906073324 22 160 0.0 0.0 0.00 0.05 0.05 97 1014.9
20260906072840 22 160 0.0 0.0 0.00 0.05 0.05 97 1014.9
20260906072316 22 123 0.0 0.0 0.00 0.05 0.05 96 1014.7
20260906071851 22 123 0.0 3.2 0.00 0.05 0.05 96 1014.6
20260906071326 22 123 0.0 3.2 0.00 0.05 0.05 96 1014.4
20260906070843 22 135 0.0 0.0 0.00 0.05 0.05 96 1014.4
20260906070321 22 135 0.0 0.0 0.00 0.05 0.05 96 1014.5
20260906065818 22 135 0.0 0.0 0.03 0.05 0.05 96 1014.6
20260906065313 22 135 0.0 0.0 0.03 0.05 0.05 96 1014.6
20260906064828 22 135 0.0 0.0 0.03 0.05 0.05 96 1014.7
20260906064326 22 135 0.0 0.0 0.05 0.05 0.05 96 1014.7
20260906063822 22 135 0.0 1.6 0.05 0.05 0.05 96 1014.8
20260906063318 22 135 0.0 1.6 0.05 0.05 0.05 96 1014.8
20260906062814 22 135 1.6 1.6 0.05 0.05 0.05 96 1014.9
20260906062315 22 135 0.0 1.6 0.05 0.05 0.05 96 1014.8
20260906061850 22 135 0.0 1.6 0.05 0.05 0.05 96 1014.9
20260906061325 22 135 0.0 1.6 0.05 0.05 0.05 96 1015.1
20260906060822 22 53 0.0 3.2 0.05 0.05 0.05 96 1015.2
20260906060318 22 121 0.0 4.8 0.05 0.05 0.05 96 1015.1
20260906055814 22 30 0.0 4.8 0.03 0.03 0.03 96 1015.1
20260906055311 22 217 1.6 3.2 0.03 0.03 0.03 96 1015.2
20260906054812 22 161 0.0 1.6 0.00 0.00 0.00 96 1015.0
20260906054327 22 161 0.0 1.6 0.00 0.00 0.00 96 1014.6
20260906053824 22 161 0.0 1.6 0.00 0.00 0.00 96 1014.6
20260906053321 22 162 0.0 3.2 0.00 0.00 0.00 96 1014.8
20260906052817 22 149 0.0 6.4 0.00 0.00 0.00 96 1015.0
20260906052333 22 227 0.0 12.9 0.00 0.00 0.00 96 1015.3
20260906051828 22 233 3.2 12.9 0.00 0.00 0.00 96 1015.5
20260906051344 22 5 0.0 0.0 0.00 0.00 0.00 96 1015.2
20260906050819 22 5 0.0 0.0 0.00 0.00 0.00 96 1015.2
20260906050321 22 5 0.0 0.0 0.00 0.00 0.00 96 1015.3
20260906045817 22 5 0.0 0.0 0.00 0.00 0.00 96 1015.3
20260906045313 22 5 0.0 0.0 0.00 0.00 0.00 96 1015.2
20260906044829 22 5 0.0 0.0 0.00 0.00 0.00 96 1015.1
20260906044326 22 5 0.0 0.0 0.00 0.00 0.00 96 1015.0
20260906043822 22 5 0.0 0.0 0.00 0.00 0.00 96 1015.1
20260906043318 22 5 0.0 0.0 0.00 0.00 0.00 96 1015.1
20260906042818 22 5 0.0 0.0 0.00 0.00 0.00 96 1015.2
20260906042315 22 5 0.0 0.0 0.00 0.00 0.00 96 1015.3
20260906041811 22 5 0.0 0.0 0.00 0.00 0.00 96 1015.3
20260906041347 22 5 0.0 0.0 0.00 0.00 0.00 96 1015.2
20260906040822 22 5 0.0 0.0 0.00 0.00 0.00 96 1015.3
20260906040340 22 5 0.0 0.0 0.00 0.00 0.00 96 1015.4
20260906035814 22 5 0.0 0.0 0.00 0.00 0.00 96 1015.5
20260906035330 22 5 0.0 0.0 0.00 0.00 0.00 96 1015.5
20260906034830 22 5 0.0 0.0 0.00 0.00 0.00 96 1015.6
20260906034325 22 5 0.0 0.0 0.00 0.00 0.00 96 1015.7
20260906033820 22 5 0.0 0.0 0.00 0.00 0.00 96 1015.8
20260906033317 22 5 0.0 0.0 0.00 0.00 0.00 96 1015.7
20260906032853 22 5 0.0 0.0 0.00 0.00 0.00 96 1015.4
20260906032324 22 5 0.0 0.0 0.00 0.00 0.00 95 1015.4
20260906031821 22 5 0.0 0.0 0.00 0.00 0.00 95 1015.5
20260906031317 22 5 0.0 0.0 0.00 0.00 0.00 95 1015.6
20260906030813 22 5 0.0 0.0 0.00 0.00 0.00 95 1015.6
20260906030313 22 5 0.0 0.0 0.00 0.00 0.00 95 1015.5
20260906025828 22 5 0.0 0.0 0.00 0.00 0.00 95 1015.5
20260906025324 22 5 0.0 0.0 0.00 0.00 0.00 95 1015.6
20260906024841 22 5 0.0 0.0 0.00 0.00 0.00 95 1015.5
20260906024316 22 5 0.0 0.0 0.00 0.00 0.00 95 1015.5
20260906023832 22 5 0.0 0.0 0.00 0.00 0.00 95 1015.4
20260906023327 22 5 0.0 0.0 0.00 0.00 0.00 95 1015.2
20260906022823 23 5 0.0 0.0 0.00 0.00 0.00 95 1015.2
20260906022324 23 5 0.0 0.0 0.00 0.00 0.00 95 1015.1
20260906021820 23 5 0.0 0.0 0.00 0.00 0.00 94 1015.0
20260906021337 23 5 0.0 0.0 0.00 0.00 0.00 94 1014.8
20260906020813 23 5 0.0 0.0 0.00 0.00 0.00 95 1014.8
20260906020330 23 5 0.0 0.0 0.00 0.00 0.00 95 1014.7
20260906015846 23 284 0.0 0.0 0.00 0.00 0.00 94 1014.7
20260906015321 23 284 0.0 0.0 0.00 0.00 0.00 95 1014.6
20260906014837 23 284 0.0 0.0 0.00 0.00 0.00 95 1014.6
20260906014312 23 284 0.0 0.0 0.00 0.00 0.00 94 1014.5
20260906013830 23 284 0.0 0.0 0.00 0.00 0.00 94 1014.5
20260906013327 23 284 0.0 0.0 0.00 0.00 0.00 94 1014.4
20260906012823 23 284 0.0 0.0 0.00 0.00 0.00 94 1014.3
20260906012319 23 284 0.0 0.0 0.00 0.00 0.00 94 1014.4
20260906011815 23 284 0.0 0.0 0.00 0.00 0.00 94 1014.3
20260906011311 23 284 0.0 0.0 0.00 0.00 0.00 94 1014.4
20260906010828 24 284 0.0 0.0 0.00 0.00 0.00 93 1014.4
20260906010329 24 284 0.0 0.0 0.00 0.00 0.00 93 1014.6
20260906005825 24 284 0.0 0.0 0.00 0.00 0.00 93 1014.6
20260906005322 24 284 0.0 0.0 0.00 0.00 0.00 93 1014.7
20260906004818 24 284 0.0 0.0 0.00 0.00 0.00 93 1014.7
20260906004334 25 284 0.0 0.0 0.00 0.00 0.00 93 1014.6
20260906003829 25 284 0.0 0.0 0.00 0.00 0.00 93 1014.7
20260906003326 25 284 0.0 0.0 0.00 0.00 0.00 93 1014.6
20260906002822 25 284 0.0 0.0 0.00 0.00 0.00 92 1014.6
20260906002322 25 284 0.0 0.0 0.00 0.00 0.00 92 1014.5
20260906001838 25 284 0.0 0.0 0.00 0.00 0.00 91 1014.5
20260906001313 25 284 0.0 0.0 0.00 0.00 0.00 91 1014.6
20260906000829 25 284 0.0 0.0 0.00 0.00 0.00 90 1014.7
20260906000326 25 284 0.0 0.0 0.00 0.00 0.00 89 1014.8
20260905235822 25 284 0.0 0.0 0.00 0.00 0.00 89 1014.7
20260905235318 26 284 0.0 0.0 0.00 0.00 0.00 88 1014.7
20260905234818 26 284 0.0 0.0 0.00 0.00 0.00 88 1014.6
20260905234334 26 284 0.0 0.0 0.00 0.00 0.00 88 1014.6
20260905233829 26 284 0.0 0.0 0.00 0.00 0.00 87 1014.5
20260905233325 26 284 0.0 0.0 0.00 0.00 0.00 87 1014.5
20260905232841 26 284 0.0 0.0 0.00 0.00 0.00 87 1014.6
20260905232316 26 198 0.0 6.4 0.00 0.00 0.00 85 1014.4